When you browse on this site, cookies collect data to enhance your experience and personalize the content and advertising you see.
Visit our Privacy Policy to learn more. By continuing to use the site, you agree to this use of cookies and data.
  • In Latvia
  • List of Countries
  • For 7 days
  • Water Temperature
  • Weather Map
  • Weather Widgets
  • user-avatar
    Login

    Hourly Weather Salgotarjan

    Today, 20 September, Friday

    Time Temperature Precipitation Wind Pressure Humidity
    00:00 +6°C° 0 mm 1 mps 738 mmHg 74%
    01:00 +6°C° 0 mm 1 mps 738 mmHg 78%
    02:00 +6°C° 0 mm 1 mps 738 mmHg 79%
    03:00 +5°C° 0 mm 1 mps 738 mmHg 80%
    04:00 +5°C° 0 mm 1 mps 738 mmHg 82%
    05:00 +6°C° 0 mm 1 mps 738 mmHg 78%
    06:00 +7°C° 0 mm 1 mps 738 mmHg 74%
    07:00 +7°C° 0 mm 0 mps 739 mmHg 69%
    08:00 +10°C° 0 mm 1 mps 739 mmHg 61%
    09:00 +12°C° 0 mm 1 mps 739 mmHg 53%
    10:00 +14°C° 0 mm 2 mps 740 mmHg 45%
    11:00 +15°C° 0 mm 2 mps 739 mmHg 40%
    12:00 +16°C° 0 mm 2 mps 739 mmHg 36%
    13:00 +17°C° 0 mm 2 mps 739 mmHg 31%
    14:00 +16°C° 0 mm 2 mps 739 mmHg 33%
    15:00 +16°C° 0 mm 2 mps 738 mmHg 36%
    16:00 +16°C° 0 mm 2 mps 738 mmHg 38%
    17:00 +14°C° 0 mm 2 mps 738 mmHg 43%
    18:00 +12°C° 0 mm 2 mps 738 mmHg 49%
    19:00 +10°C° 0 mm 1 mps 738 mmHg 54%
    20:00 +10°C° 0 mm 1 mps 738 mmHg 57%
    21:00 +9°C° 0 mm 1 mps 738 mmHg 60%
    22:00 +8°C° 0 mm 1 mps 738 mmHg 63%
    23:00 +8°C° 0 mm 1 mps 738 mmHg 65%

    Tomorrow, 21 September, Saturday

    Time Temperature Precipitation Wind Pressure Humidity
    00:00 +7°C° 0 mm 1 mps 738 mmHg 67%
    01:00 +7°C° 0 mm 1 mps 739 mmHg 69%
    02:00 +6°C° 0 mm 1 mps 738 mmHg 71%
    03:00 +5°C° 0 mm 0 mps 738 mmHg 72%
    04:00 +5°C° 0 mm 0 mps 738 mmHg 74%
    05:00 +6°C° 0 mm 0 mps 738 mmHg 71%
    06:00 +7°C° 0 mm 0 mps 739 mmHg 67%
    07:00 +8°C° 0 mm 0 mps 739 mmHg 64%
    08:00 +10°C° 0 mm 0 mps 739 mmHg 57%
    09:00 +13°C° 0 mm 1 mps 739 mmHg 49%
    10:00 +16°C° 0 mm 1 mps 739 mmHg 42%
    11:00 +18°C° 0 mm 1 mps 739 mmHg 40%
    12:00 +19°C° 0 mm 1 mps 739 mmHg 38%
    13:00 +19°C° 0 mm 1 mps 738 mmHg 36%
    14:00 +19°C° 0 mm 1 mps 738 mmHg 37%
    15:00 +19°C° 0 mm 1 mps 738 mmHg 38%
    16:00 +18°C° 0 mm 1 mps 737 mmHg 40%
    17:00 +15°C° 0 mm 1 mps 737 mmHg 45%
    18:00 +13°C° 0 mm 1 mps 737 mmHg 51%
    19:00 +10°C° 0 mm 0 mps 737 mmHg 56%
    20:00 +10°C° 0 mm 0 mps 737 mmHg 58%
    21:00 +9°C° 0 mm 0 mps 737 mmHg 60%
    22:00 +9°C° 0 mm 0 mps 737 mmHg 61%
    23:00 +9°C° 0 mm 0 mps 737 mmHg 63%

    Day after tomorrow, 22 September, Sunday

    Time Temperature Precipitation Wind Pressure Humidity
    00:00 +8°C° 0 mm 0 mps 736 mmHg 64%
    01:00 +8°C° 0 mm 0 mps 736 mmHg 65%
    02:00 +8°C° 0 mm 0 mps 736 mmHg 67%
    03:00 +8°C° 0 mm 1 mps 736 mmHg 68%
    04:00 +8°C° 0 mm 1 mps 735 mmHg 70%
    05:00 +9°C° 0 mm 1 mps 735 mmHg 67%
    06:00 +10°C° 0 mm 1 mps 736 mmHg 65%
    07:00 +11°C° 0 mm 1 mps 736 mmHg 62%
    08:00 +13°C° 0 mm 1 mps 736 mmHg 55%
    09:00 +15°C° 0 mm 1 mps 735 mmHg 47%
    10:00 +18°C° 0 mm 2 mps 735 mmHg 39%
    11:00 +19°C° 0 mm 2 mps 735 mmHg 37%
    12:00 +20°C° 0 mm 2 mps 735 mmHg 34%
    13:00 +20°C° 0 mm 2 mps 734 mmHg 32%
    14:00 +20°C° 0 mm 2 mps 733 mmHg 34%
    15:00 +20°C° 0 mm 2 mps 733 mmHg 35%
    16:00 +20°C° 0 mm 2 mps 732 mmHg 36%
    17:00 +18°C° 0 mm 2 mps 732 mmHg 41%
    18:00 +16°C° 0 mm 2 mps 732 mmHg 45%
    19:00 +13°C° 0 mm 1 mps 732 mmHg 50%
    20:00 +13°C° 0 mm 1 mps 731 mmHg 50%
    21:00 +13°C° 0 mm 1 mps 731 mmHg 51%
    22:00 +12°C° 0 mm 1 mps 731 mmHg 52%
    23:00 +13°C° 0 mm 1 mps 731 mmHg 51%

    23 September, Monday

    Time Temperature Precipitation Wind Pressure Humidity
    00:00 +14°C° 0 mm 1 mps 731 mmHg 49%
    01:00 +14°C° 0 mm 1 mps 731 mmHg 47%
    02:00 +14°C° 0 mm 2 mps 730 mmHg 48%
    03:00 +14°C° 0 mm 2 mps 730 mmHg 48%
    04:00 +14°C° 0 mm 2 mps 730 mmHg 48%
    05:00 +14°C° 0 mm 2 mps 729 mmHg 49%
    06:00 +14°C° 0 mm 2 mps 729 mmHg 50%
    07:00 +14°C° 0 mm 2 mps 729 mmHg 51%
    08:00 +14°C° 0 mm 2 mps 729 mmHg 53%
    09:00 +14°C° 0 mm 2 mps 729 mmHg 55%
    10:00 +13°C° 0 mm 3 mps 730 mmHg 56%
    11:00 +13°C° 0 mm 3 mps 729 mmHg 59%
    12:00 +13°C° 0 mm 3 mps 729 mmHg 61%
    13:00 +13°C° 0 mm 3 mps 729 mmHg 63%
    14:00 +12°C° 0.1 mm 3 mps 729 mmHg 67%
    15:00 +13°C° 0.1 mm 2 mps 729 mmHg 71%
    16:00 +12°C° 0.1 mm 2 mps 728 mmHg 74%
    17:00 +12°C° 0.5 mm 2 mps 728 mmHg 80%
    18:00 +12°C° 0.5 mm 2 mps 728 mmHg 85%
    19:00 +10°C° 0.5 mm 2 mps 728 mmHg 90%
    20:00 +10°C° 0.1 mm 2 mps 728 mmHg 91%
    21:00 +10°C° 0.1 mm 2 mps 728 mmHg 92%
    22:00 +11°C° 0.1 mm 1 mps 728 mmHg 93%
    23:00 +11°C° 0 mm 1 mps 728 mmHg 93%

    24 September, Tuesday

    Time Temperature Precipitation Wind Pressure Humidity
    00:00 +11°C° 0 mm 1 mps 728 mmHg 93%
    01:00 +11°C° 0 mm 1 mps 728 mmHg 93%
    02:00 +11°C° 0 mm 1 mps 728 mmHg 93%
    03:00 +11°C° 0 mm 1 mps 727 mmHg 93%
    04:00 +11°C° 0 mm 1 mps 727 mmHg 93%
    05:00 +11°C° 0 mm 1 mps 727 mmHg 91%
    06:00 +11°C° 0 mm 1 mps 727 mmHg 89%
    07:00 +12°C° 0 mm 1 mps 727 mmHg 88%
    08:00 +13°C° 0 mm 1 mps 727 mmHg 80%
    09:00 +15°C° 0 mm 1 mps 727 mmHg 73%
    10:00 +18°C° 0 mm 1 mps 728 mmHg 66%
    11:00 +19°C° 0 mm 1 mps 728 mmHg 61%
    12:00 +21°C° 0 mm 1 mps 728 mmHg 56%
    13:00 +22°C° 0 mm 1 mps 727 mmHg 51%
    14:00 +21°C° 0 mm 1 mps 727 mmHg 53%
    15:00 +21°C° 0 mm 1 mps 727 mmHg 56%
    16:00 +21°C° 0 mm 1 mps 727 mmHg 59%
    17:00 +19°C° 0 mm 1 mps 728 mmHg 62%
    18:00 +18°C° 0 mm 1 mps 728 mmHg 66%
    19:00 +16°C° 0 mm 1 mps 728 mmHg 69%
    20:00 +16°C° 0 mm 1 mps 728 mmHg 71%
    21:00 +15°C° 0 mm 1 mps 728 mmHg 73%
    22:00 +14°C° 0 mm 1 mps 728 mmHg 75%
    23:00 +14°C° 0 mm 1 mps 728 mmHg 77%

    25 September, Wednesday

    Time Temperature Precipitation Wind Pressure Humidity
    00:00 +12°C° 0 mm 0 mps 728 mmHg 79%
    01:00 +12°C° 0 mm 0 mps 728 mmHg 82%
    02:00 +11°C° 0 mm 0 mps 728 mmHg 84%
    03:00 +11°C° 0 mm 0 mps 728 mmHg 85%
    04:00 +11°C° 0 mm 0 mps 727 mmHg 87%
    05:00 +11°C° 0 mm 0 mps 728 mmHg 84%
    06:00 +12°C° 0 mm 0 mps 728 mmHg 81%
    07:00 +13°C° 0 mm 0 mps 728 mmHg 78%
    08:00 +15°C° 0 mm 0 mps 728 mmHg 72%
    09:00 +18°C° 0 mm 1 mps 729 mmHg 65%
    10:00 +20°C° 0 mm 1 mps 729 mmHg 59%
    11:00 +20°C° 0 mm 2 mps 729 mmHg 57%
    12:00 +20°C° 0 mm 2 mps 729 mmHg 56%
    13:00 +21°C° 0 mm 2 mps 729 mmHg 54%
    14:00 +21°C° 0 mm 2 mps 728 mmHg 55%
    15:00 +20°C° 0 mm 2 mps 728 mmHg 55%
    16:00 +20°C° 0 mm 2 mps 728 mmHg 56%
    17:00 +19°C° 0 mm 2 mps 728 mmHg 60%
    18:00 +18°C° 0 mm 2 mps 728 mmHg 65%
    19:00 +16°C° 0 mm 1 mps 728 mmHg 69%
    20:00 +16°C° 0 mm 1 mps 728 mmHg 72%
    21:00 +15°C° 0 mm 1 mps 729 mmHg 75%
    22:00 +15°C° 0 mm 1 mps 729 mmHg 77%
    23:00 +14°C° 0 mm 1 mps 729 mmHg 79%
    Show more